Weather History for Muncie, IN

Change the Weather History Date:

Sunday, March 31, 2013

  Actual Average Record
Temperature  
Mean Temperature 52 °F 46 °F  
Max Temperature 60 °F 55 °F 80 °F (1986)
Min Temperature 43 °F 36 °F 14 °F (1969)
Degree Days  
Heating Degree Days 13 20  
Month to date heating degree days 905 787  
Since 1 July heating degree days 4919 5170  
Cooling Degree Days 0 0  
Month to date cooling degree days 0 1  
Year to date cooling degree days 0 1  
Growing Degree Days 2 (Base 50)    
Moisture  
Dew Point 40 °F    
Average Humidity 65    
Maximum Humidity 86    
Minimum Humidity 44    
Precipitation  
Precipitation 0.04 in 0.11 in 1.83 in (1985)
Month to date precipitation 1.23 2.95  
Year to date precipitation 6.90 7.49  
Sea Level Pressure  
Sea Level Pressure 29.80 in    
Wind  
Wind Speed 11 mph (WSW)    
Max Wind Speed 29 mph    
Max Gust Speed 35 mph    
Visibility 8 miles    
Events Rain    
T = Trace of Precipitation, MM = Missing Value Source: NWS Daily Summary

Daily Weather History Graph

Daily Weather History Graph

Search for Another Location

Airport:

Trip Planner

Search our weather history database for the weather conditions in past years. The results will help you decide how hot, cold, wet, or windy it might be!

Date:

Astronomy

Mar. 31, 2013 Rise Set
Actual Time 7:26 AM EDT 8:05 PM EDT
Civil Twilight 6:59 AM EDT 8:32 PM EDT
Nautical Twilight 6:26 AM EDT 9:05 PM EDT
Astronomical Twilight 5:53 AM EDT 9:38 PM EDT
Moon 12:10 AM EDT (3/31) 10:13 AM EDT (3/31)
Length of Visible Light 13h 33m
Length of Day
12h 38m
Waning Gibbous, 78% of the Moon is Illuminated
Mar 31
Waning Gibbous
Apr 3
Last Quarter
Apr 10
New
Apr 18
First Quarter
Apr 25
Full

Hourly Weather History & Observations

Time (EDT) Temp. Windchill Dew Point Humidity Pressure Visibility Wind Dir Wind Speed Gust Speed Precip Events Conditions
12:53 AM 50.0 °F - 34.0 °F 54% 29.90 in 10.0 mi South 4.6 mph - N/A   Clear
1:53 AM 48.9 °F - 34.0 °F 56% 29.88 in 10.0 mi South 4.6 mph - N/A   Clear
2:53 AM 46.0 °F - 35.1 °F 66% 29.86 in 10.0 mi Calm Calm - N/A   Clear
3:53 AM 46.9 °F - 34.0 °F 61% 29.83 in 10.0 mi SW 3.5 mph - N/A   Partly Cloudy
4:53 AM 48.0 °F - 34.0 °F 58% 29.81 in 10.0 mi SW 5.8 mph - N/A   Overcast
5:53 AM 46.0 °F 43.1 °F 39.9 °F 79% 29.80 in 10.0 mi West 5.8 mph - 0.03 in   Overcast
6:53 AM 46.0 °F 43.1 °F 39.9 °F 79% 29.80 in 8.0 mi SW 5.8 mph - N/A   Overcast
7:53 AM 46.0 °F 42.5 °F 39.9 °F 79% 29.81 in 8.0 mi WSW 6.9 mph - N/A   Overcast
8:50 AM 46.4 °F 42.9 °F 41.0 °F 81% 29.80 in 5.0 mi WSW 6.9 mph - 0.00 in Rain Light Rain
8:53 AM 46.9 °F - 41.0 °F 80% 29.80 in 5.0 mi WSW 8.1 mph - 0.00 in Rain Light Rain
9:22 AM 46.4 °F 43.5 °F 42.8 °F 87% 29.80 in 4.0 mi WSW 5.8 mph - 0.00 in   Haze
9:40 AM 46.4 °F 42.9 °F 42.8 °F 87% 29.80 in 5.0 mi WSW 6.9 mph - 0.00 in   Haze
9:53 AM 46.9 °F - 42.1 °F 83% 29.79 in 5.0 mi West 8.1 mph - 0.00 in   Haze
10:01 AM 46.4 °F 42.4 °F 42.8 °F 87% 29.80 in 5.0 mi WSW 8.1 mph - N/A   Haze
10:29 AM 46.4 °F 41.5 °F 42.8 °F 87% 29.80 in 5.0 mi West 10.4 mph 17.3 mph N/A   Overcast
10:53 AM 46.9 °F - 43.0 °F 86% 29.79 in 4.0 mi West 11.5 mph - N/A   Overcast
11:53 AM 46.9 °F - 43.0 °F 86% 29.81 in 3.0 mi West 9.2 mph - N/A   Overcast
12:31 PM 48.2 °F - 42.8 °F 82% 29.81 in 4.0 mi West 11.5 mph - N/A   Haze
12:41 PM 48.2 °F - 42.8 °F 82% 29.81 in 6.0 mi West 16.1 mph 19.6 mph N/A   Haze
12:53 PM 48.9 °F - 42.1 °F 77% 29.80 in 6.0 mi West 13.8 mph - N/A   Haze
1:53 PM 54.0 °F - 41.0 °F 62% 29.78 in 10.0 mi WSW 12.7 mph 20.7 mph N/A   Scattered Clouds
2:53 PM 57.0 °F - 41.0 °F 55% 29.76 in 10.0 mi West 13.8 mph 21.9 mph N/A   Partly Cloudy
3:53 PM 59.0 °F - 37.9 °F 46% 29.74 in 10.0 mi West 13.8 mph - N/A   Scattered Clouds
4:53 PM 59.0 °F - 37.9 °F 46% 29.74 in 10.0 mi West 20.7 mph 27.6 mph N/A   Partly Cloudy
5:53 PM 59.0 °F - 37.0 °F 44% 29.73 in 10.0 mi West 15.0 mph 24.2 mph N/A   Mostly Cloudy
6:53 PM 59.0 °F - 37.0 °F 44% 29.73 in 10.0 mi West 12.7 mph 21.9 mph N/A   Scattered Clouds
7:53 PM 53.1 °F - 41.0 °F 64% 29.77 in 8.0 mi West 20.7 mph 34.5 mph 0.01 in Rain Light Rain
8:53 PM 51.1 °F - 42.1 °F 71% 29.76 in 10.0 mi WSW 9.2 mph - 0.00 in   Overcast
9:53 PM 51.1 °F - 39.9 °F 66% 29.77 in 10.0 mi WSW 10.4 mph - N/A   Clear
10:53 PM 50.0 °F - 39.9 °F 68% 29.79 in 10.0 mi West 12.7 mph - N/A   Partly Cloudy
11:53 PM 48.0 °F - 35.1 °F 61% 29.81 in 10.0 mi NW 11.5 mph 21.9 mph N/A   Mostly Cloudy